ARIANE 4O DEB, 60248

Orbit data source: Space-Track

ARIANE 4O DEB, 60248 is space debris in SSO originally from a launch on Tue, 24 Mar 1998 UTC launched from the French Guiana (FRGUI). Debris objects in space refer to the collection of defunct objects orbiting the Earth. Examples of debris include non-operational satellites, rocket bodies, and fragments generated from explosions, collisions, or faulty payload assembly.

Loading next visibility...
ARIANE 4O DEB details
Identifier
60248, 1998-017K
Orbit
SSO
Last TLE update6 days ago
Origin
Flag of FRCNES (FR)
ManufacturerUnknown
MissionSpacecraft
Bus & MotorUnknown
MassUnknown
Launch date (UTC)
1998-03-24 (27 years ago)
Launch vehicleUnknown
Launch site
French Guiana (FRGUI)
Object type
Payload
Rocket body
Debris
Shape & HBRUnknown
Radar Cross SectionSmall (<0.1 m²)

Expand to show TLE details & history

TLE from 6 days ago
0 ARIANE 4O DEB
1 60248U 98017K   24355.78274301  .00132179  00000-0  20753-1 0  9997
2 60248  98.8387   8.5995 0019251 251.5365 108.3747 14.71688573 34946
Epoch: 2024-12-20T18:47Z
Definitive object data (Epoch: 2024-12-20T18:47:08.996Z)
Latitude-0.00001°
Longitude-3.03129°
Altitude662.956 km
Speed7.523 km/s
True Right ascension00h 34m 23s
True Declination0° 00' 00"
Sunlit
Object was in daylight at TLE epoch
Visualization TLE readout
Latitude32.21359°
Longitude-2.48827°
Altitude667.637 km
Speed7.52 km/s
Apparent Right ascension23h 17m 02s
Apparent Declination-1° 54' 08"
Sunlit
Object is in daylight
Visualization observer readout
Local Sidereal Time09:39:09
Azimuth323.438° NNW
Elevation-45.972°
Doppler factor1
Orbital elements
Apogee altitude666.314 km
Perigee altitude639.244 km
Semi-major axis7,030.916 km
Eccentricity0.0019251
Inclination98.8387°
RAAN8.5995°
Arg. of periapsis251.5365°
True anomaly108.58389°
Mean anomaly108.3747°
Eccentric anomaly108.47931°
Mean motion3.6815 °/min
BSTAR0.020753
Orbital period97.79 mins
Loading maneuver chart data...
Loading historical data...
Loading historical data...
Loading historical data...
Loading historical data...
Loading historical data...
Loading historical data...
Loading historical data...

ARIANE 4O DEB Visibility forecast

Observer location: undefined°, undefined

Span
Click to sort rows by Start time (UTC) header in descending order
Start Az.
Max El. time (UTC)
Max El. Az.
Max El.
End time (UTC)
End Az.
8 mins2024-12-26 13:58:59.328Z16.655° NNE2024-12-26 14:02:59.328Z142.791° SSE44.303°2024-12-26 14:06:59.328Z190.987° SSW
8 mins2024-12-27 00:55:59.328Z158.81° S2024-12-27 00:59:59.328Z124.041° SE42.676°2024-12-27 01:03:59.328Z351.142° N
|